Philip, SD

4:58 AM MDT on August 28, 2016 (GMT -0600)
Philip

Weather History for KPHP - October, 2013

Change the Weather History Date:

Tuesday, October 22, 2013

  Actual Average Record
Temperature  
Mean Temperature 47 °F 46 °F  
Max Temperature 54 °F 60 °F 88 °F (1992)
Min Temperature 39 °F 32 °F 18 °F (1981)
Degree Days  
Heating Degree Days 18 19  
Month to date heating degree days 315 323  
Since 1 July heating degree days 378 509  
Cooling Degree Days 0 0  
Month to date cooling degree days 0 0  
Year to date cooling degree days 945 814  
Moisture  
Dew Point 37 °F    
Average Humidity 70    
Maximum Humidity 89    
Minimum Humidity 50    
Precipitation  
Precipitation T in 0.05 in 0.66 in (2015)
Month to date precipitation 3.59 1.10  
Year to date precipitation 14.58 15.97  
Sea Level Pressure  
Sea Level Pressure 30.06 in    
Wind  
Wind Speed 7 mph (North)    
Max Wind Speed 20 mph    
Max Gust Speed 25 mph    
Visibility 10 miles    
Events      
T = Trace of Precipitation, MM = Missing Value Source: NWS Daily Summary

Daily Weather History Graph

Daily Weather History Graph

Search for Another Location

Airport or City:

Trip Planner

Search our weather history database for the weather conditions in past years. The results will help you decide how hot, cold, wet, or windy it might be!

Date:

Astronomy

Oct. 22, 2013 Rise Set
Actual Time 7:10 AM MDT 5:50 PM MDT
Civil Twilight 6:40 AM MDT 6:20 PM MDT
Nautical Twilight 6:07 AM MDT 6:53 PM MDT
Astronomical Twilight 5:33 AM MDT 7:27 PM MDT
Moon 8:27 PM MDT (10/22) 10:45 AM MDT (10/22)
Length of Visible Light 11h 39m
Length of Day
10h 40m
Waning Gibbous, 86% of the Moon is Illuminated
Oct 22
Waning Gibbous
Oct 26
Last Quarter
Nov 3
New
Nov 9
First Quarter
Nov 17
Full

Hourly Weather History & Observations

Time (MDT) Temp. Windchill Dew Point Humidity Pressure Visibility Wind Dir Wind Speed Gust Speed Precip Events Conditions
12:55 AM 46.9 °F - 39.9 °F 77% 29.97 in 10.0 mi NNW 11.5 mph - N/A   Mostly Cloudy
1:55 AM 46.0 °F 40.2 °F 39.9 °F 79% 29.97 in 10.0 mi NNW 12.7 mph - N/A   Partly Cloudy
2:55 AM 46.0 °F 41.4 °F 39.9 °F 79% 29.97 in 10.0 mi NW 9.2 mph - N/A   Overcast
3:55 AM 46.0 °F 43.1 °F 41.0 °F 83% 29.98 in 10.0 mi North 5.8 mph - N/A   Overcast
4:55 AM 46.0 °F - 42.1 °F 86% 29.99 in 10.0 mi Calm Calm - 0.00 in   Overcast
5:02 AM 46.4 °F - 42.8 °F 87% 29.98 in 10.0 mi Calm Calm - N/A   Overcast
5:55 AM 45.0 °F 43.5 °F 41.0 °F 86% 30.01 in 10.0 mi WNW 3.5 mph - N/A   Overcast
6:55 AM 45.0 °F 41.2 °F 41.0 °F 86% 30.04 in 10.0 mi NW 6.9 mph - N/A   Overcast
7:55 AM 44.1 °F 39.5 °F 37.9 °F 79% 30.06 in 10.0 mi NNW 8.1 mph - N/A   Mostly Cloudy
8:06 AM 44.6 °F 39.2 °F 37.4 °F 76% 30.05 in 10.0 mi NW 10.4 mph - N/A   Scattered Clouds
8:55 AM 46.0 °F 41.0 °F 37.0 °F 71% 30.08 in 10.0 mi North 10.4 mph - N/A   Clear
9:55 AM 48.0 °F - 36.0 °F 63% 30.10 in 10.0 mi North 17.3 mph - N/A   Mostly Cloudy
10:36 AM 46.4 °F 39.5 °F 35.6 °F 66% 30.10 in 10.0 mi North 17.3 mph - N/A   Overcast
10:55 AM 46.9 °F - 35.1 °F 63% 30.12 in 10.0 mi North 15.0 mph - N/A   Overcast
11:06 AM 46.4 °F 40.1 °F 35.6 °F 66% 30.10 in 10.0 mi North 15.0 mph - N/A   Overcast
11:23 AM 46.4 °F 40.4 °F 35.6 °F 66% 30.10 in 10.0 mi North 13.8 mph - N/A   Overcast
11:55 AM 48.9 °F - 35.1 °F 59% 30.11 in 10.0 mi North 13.8 mph - N/A   Overcast
12:28 PM 50.0 °F - 35.6 °F 58% 30.09 in 10.0 mi NW 12.7 mph - N/A   Overcast
12:37 PM 48.2 °F - 33.8 °F 58% 30.09 in 10.0 mi North 13.8 mph 20.7 mph N/A   Overcast
12:55 PM 48.9 °F - 35.1 °F 59% 30.10 in 10.0 mi North 12.7 mph - N/A   Mostly Cloudy
1:55 PM 52.0 °F - 36.0 °F 54% 30.08 in 10.0 mi NNW 12.7 mph 20.7 mph N/A   Scattered Clouds
2:55 PM 53.1 °F - 36.0 °F 52% 30.08 in 10.0 mi NNW 10.4 mph - N/A   Clear
3:55 PM 51.1 °F - 36.0 °F 56% 30.08 in 10.0 mi NNE 8.1 mph - N/A   Partly Cloudy
4:55 PM 50.0 °F - 36.0 °F 59% 30.09 in 10.0 mi NNE 4.6 mph - N/A   Mostly Cloudy
5:55 PM 46.0 °F 44.8 °F 37.9 °F 73% 30.09 in 10.0 mi ENE 3.5 mph - N/A   Partly Cloudy
6:55 PM 42.1 °F 38.4 °F 36.0 °F 79% 30.10 in 10.0 mi East 5.8 mph - N/A   Partly Cloudy
7:55 PM 39.9 °F 37.8 °F 35.1 °F 83% 30.11 in 10.0 mi SE 3.5 mph - N/A   Mostly Cloudy
8:55 PM 39.9 °F 37.8 °F 35.1 °F 83% 30.10 in 10.0 mi East 3.5 mph - N/A   Overcast
9:55 PM 42.1 °F - 35.1 °F 76% 30.09 in 10.0 mi Calm Calm - N/A   Overcast
10:55 PM 42.1 °F - 37.0 °F 82% 30.09 in 10.0 mi Calm Calm - N/A   Overcast
11:55 PM 42.1 °F - 37.0 °F 82% 30.06 in 10.0 mi Calm Calm - N/A   Overcast